Climatologie pour Saint-Brevin les Pins
Jour • Résumé pour janvier 13, 2017 Système :  Métrique    Anglais   Mixte
« - 1 jour
+ 1 jour »
Jour Semaine Mois Année Personnalisé
  Maximum : Minimum : Moyenne :
Température sous abri : 9.9 °C 3.0 °C 5.8 °C
Point de rosée : 3.5 °C 0.3 °C 1.8 °C
Humidité : 83 % 58 % 75 %
Vitesse du vent : 37.0 km/h 0.0 km/h 11.5 km/h
Rafale : 49.9 km/h - -
Direction :- - NW
Pression : 1023.2 hPa 1011.7 hPa -
Précipitations : 0.0 mm    
Historical Graphs
 
 
Tableau de données pour janvier 13, 2017
Heure Tempé Pt rosée Pression Vent Vitesse Rafale Humidité Taux pluie (/hr) Soleil
00:00 5.3 °C 1.4 °C 1012.1 hPa NNW 17.7 km/h 33.8 km/h 76 % 0.0 mm 0 W/m2
00:10 5.2 °C 1.3 °C 1012.1 hPa WNW 9.7 km/h 27.4 km/h 76 % 0.0 mm 0 W/m2
00:15 5.2 °C 1.5 °C 1012.1 hPa NNW 14.5 km/h 30.6 km/h 77 % 0.0 mm 0 W/m2
00:20 5.2 °C 1.5 °C 1011.7 hPa WNW 14.5 km/h 35.4 km/h 77 % 0.0 mm 0 W/m2
00:25 5.2 °C 1.6 °C 1012.1 hPa NW 8.0 km/h 35.4 km/h 78 % 0.0 mm 0 W/m2
00:30 5.2 °C 1.6 °C 1012.1 hPa NW 14.5 km/h 35.4 km/h 78 % 0.0 mm 0 W/m2
00:35 5.2 °C 1.6 °C 1012.1 hPa WNW 4.8 km/h 27.4 km/h 78 % 0.0 mm 0 W/m2
00:40 5.2 °C 1.7 °C 1012.1 hPa NW 12.9 km/h 29.0 km/h 78 % 0.0 mm 0 W/m2
00:45 5.3 °C 1.8 °C 1012.1 hPa NW 14.5 km/h 30.6 km/h 78 % 0.0 mm 0 W/m2
00:50 5.3 °C 1.8 °C 1011.7 hPa NW 27.4 km/h 32.2 km/h 78 % 0.0 mm 0 W/m2
00:55 5.4 °C 1.7 °C 1011.7 hPa NW 9.7 km/h 35.4 km/h 77 % 0.0 mm 0 W/m2
01:00 5.4 °C 1.7 °C 1012.1 hPa WNW 8.0 km/h 35.4 km/h 77 % 0.0 mm 0 W/m2
01:05 5.4 °C 1.7 °C 1012.4 hPa NW 22.5 km/h 30.6 km/h 77 % 0.0 mm 0 W/m2
01:10 5.4 °C 1.4 °C 1012.4 hPa WNW 9.7 km/h 30.6 km/h 75 % 0.0 mm 0 W/m2
01:15 5.4 °C 1.4 °C 1012.8 hPa NW 14.5 km/h 29.0 km/h 75 % 0.0 mm 0 W/m2
01:20 5.4 °C 1.4 °C 1012.8 hPa NW 17.7 km/h 30.6 km/h 75 % 0.0 mm 0 W/m2
01:25 5.4 °C 1.4 °C 1012.8 hPa NW 12.9 km/h 30.6 km/h 75 % 0.0 mm 0 W/m2
01:30 5.5 °C 1.4 °C 1012.8 hPa NW 6.4 km/h 25.7 km/h 75 % 0.0 mm 0 W/m2
01:35 5.6 °C 1.5 °C 1012.8 hPa NW 24.1 km/h 32.2 km/h 75 % 0.0 mm 0 W/m2
01:40 5.6 °C 1.5 °C 1013.1 hPa NW 37.0 km/h 37.0 km/h 75 % 0.0 mm 0 W/m2
01:45 5.6 °C 1.3 °C 1012.8 hPa WNW 20.9 km/h 37.0 km/h 74 % 0.0 mm 0 W/m2
01:50 5.5 °C 0.8 °C 1012.8 hPa NW 16.1 km/h 37.0 km/h 72 % 0.0 mm 0 W/m2
01:55 5.4 °C 0.8 °C 1013.1 hPa WNW 14.5 km/h 40.2 km/h 72 % 0.0 mm 0 W/m2
02:05 5.3 °C 0.7 °C 1012.8 hPa NW 12.9 km/h 29.0 km/h 72 % 0.0 mm 0 W/m2
02:10 5.3 °C 0.8 °C 1012.8 hPa WNW 16.1 km/h 30.6 km/h 73 % 0.0 mm 0 W/m2
02:15 5.3 °C 0.9 °C 1012.8 hPa WNW 14.5 km/h 30.6 km/h 73 % 0.0 mm 0 W/m2
02:20 5.3 °C 0.8 °C 1012.8 hPa NW 9.7 km/h 30.6 km/h 73 % 0.0 mm 0 W/m2
02:25 5.3 °C 1.1 °C 1013.1 hPa WNW 16.1 km/h 29.0 km/h 74 % 0.0 mm 0 W/m2
02:30 5.3 °C 1.2 °C 1013.1 hPa NW 20.9 km/h 27.4 km/h 75 % 0.0 mm 0 W/m2
02:35 5.3 °C 1.4 °C 1013.1 hPa NW 9.7 km/h 29.0 km/h 76 % 0.0 mm 0 W/m2
02:40 5.3 °C 1.4 °C 1013.1 hPa WNW 19.3 km/h 29.0 km/h 76 % 0.0 mm 0 W/m2
02:45 5.3 °C 1.6 °C 1013.1 hPa North 8.0 km/h 27.4 km/h 77 % 0.0 mm 0 W/m2
02:50 5.3 °C 1.4 °C 1013.1 hPa NW 17.7 km/h 30.6 km/h 76 % 0.0 mm 0 W/m2
02:55 5.3 °C 1.2 °C 1013.1 hPa NW 9.7 km/h 30.6 km/h 75 % 0.0 mm 0 W/m2
03:00 5.3 °C 1.0 °C 1013.1 hPa WNW 14.5 km/h 29.0 km/h 74 % 0.0 mm 0 W/m2
03:05 5.3 °C 1.0 °C 1013.1 hPa NNW 11.3 km/h 29.0 km/h 74 % 0.0 mm 0 W/m2
03:10 5.2 °C 1.1 °C 1013.1 hPa NW 19.3 km/h 24.1 km/h 75 % 0.0 mm 0 W/m2
03:15 5.3 °C 1.2 °C 1013.1 hPa NW 16.1 km/h 25.7 km/h 75 % 0.0 mm 0 W/m2
03:20 5.3 °C 1.2 °C 1013.1 hPa NW 11.3 km/h 25.7 km/h 75 % 0.0 mm 0 W/m2
03:25 5.3 °C 1.2 °C 1013.1 hPa WNW 14.5 km/h 24.1 km/h 75 % 0.0 mm 0 W/m2
03:30 5.3 °C 1.2 °C 1013.1 hPa West 3.2 km/h 22.5 km/h 75 % 0.0 mm 0 W/m2
03:35 5.3 °C 1.2 °C 1013.1 hPa NNW 14.5 km/h 22.5 km/h 75 % 0.0 mm 0 W/m2
03:40 5.3 °C 1.6 °C 1013.1 hPa WNW 9.7 km/h 22.5 km/h 77 % 0.0 mm 0 W/m2
03:45 5.4 °C 1.9 °C 1013.1 hPa WNW 14.5 km/h 29.0 km/h 78 % 0.0 mm 0 W/m2
03:50 5.5 °C 2.1 °C 1013.1 hPa NNW 12.9 km/h 33.8 km/h 79 % 0.0 mm 0 W/m2
03:55 5.6 °C 2.1 °C 1013.4 hPa NNW 12.9 km/h 33.8 km/h 78 % 0.0 mm 0 W/m2
04:00 5.7 °C 2.3 °C 1013.4 hPa NNW 12.9 km/h 30.6 km/h 79 % 0.0 mm 0 W/m2
04:05 5.7 °C 2.3 °C 1013.4 hPa WNW 22.5 km/h 27.4 km/h 79 % 0.0 mm 0 W/m2
04:10 5.7 °C 2.4 °C 1013.4 hPa NW 8.0 km/h 33.8 km/h 79 % 0.0 mm 0 W/m2
04:20 5.9 °C 2.5 °C 1013.4 hPa NW 30.6 km/h 33.8 km/h 79 % 0.0 mm 0 W/m2
04:25 5.9 °C 2.6 °C 1013.4 hPa NNW 11.3 km/h 33.8 km/h 79 % 0.0 mm 0 W/m2
04:30 6.0 °C 2.6 °C 1013.4 hPa NW 14.5 km/h 32.2 km/h 79 % 0.0 mm 0 W/m2
04:35 6.1 °C 2.7 °C 1013.4 hPa North 19.3 km/h 32.2 km/h 79 % 0.0 mm 0 W/m2
04:40 6.1 °C 2.7 °C 1013.4 hPa NW 11.3 km/h 32.2 km/h 79 % 0.0 mm 0 W/m2
04:45 6.1 °C 2.7 °C 1013.4 hPa NNW 16.1 km/h 29.0 km/h 79 % 0.0 mm 0 W/m2
04:50 6.1 °C 2.7 °C 1013.1 hPa NNW 9.7 km/h 29.0 km/h 79 % 0.0 mm 0 W/m2
04:55 6.1 °C 2.7 °C 1013.1 hPa NW 12.9 km/h 25.7 km/h 79 % 0.0 mm 0 W/m2
05:00 6.1 °C 2.7 °C 1013.1 hPa WNW 17.7 km/h 22.5 km/h 79 % 0.0 mm 0 W/m2
05:05 6.1 °C 2.5 °C 1013.4 hPa WNW 20.9 km/h 29.0 km/h 78 % 0.0 mm 0 W/m2
05:10 6.1 °C 2.4 °C 1013.4 hPa NW 11.3 km/h 29.0 km/h 77 % 0.0 mm 0 W/m2
05:15 6.1 °C 2.4 °C 1013.4 hPa WNW 8.0 km/h 29.0 km/h 77 % 0.0 mm 0 W/m2
05:20 6.2 °C 2.2 °C 1013.4 hPa NW 11.3 km/h 27.4 km/h 76 % 0.0 mm 0 W/m2
05:25 6.2 °C 2.3 °C 1013.8 hPa WNW 9.7 km/h 27.4 km/h 76 % 0.0 mm 0 W/m2
05:30 6.2 °C 2.5 °C 1013.8 hPa NW 17.7 km/h 27.4 km/h 77 % 0.0 mm 0 W/m2
05:35 6.3 °C 2.5 °C 1013.8 hPa NW 11.3 km/h 30.6 km/h 77 % 0.0 mm 0 W/m2
05:40 6.4 °C 2.6 °C 1013.8 hPa WNW 11.3 km/h 35.4 km/h 77 % 0.0 mm 0 W/m2
05:45 6.5 °C 2.8 °C 1013.4 hPa WNW 16.1 km/h 35.4 km/h 77 % 0.0 mm 0 W/m2
05:50 6.7 °C 2.7 °C 1013.8 hPa NW 14.5 km/h 38.6 km/h 76 % 0.0 mm 0 W/m2
05:55 6.7 °C 2.8 °C 1013.8 hPa NW 12.9 km/h 38.6 km/h 76 % 0.0 mm 0 W/m2
06:00 6.7 °C 2.6 °C 1014.1 hPa NNW 11.3 km/h 49.9 km/h 75 % 0.0 mm 0 W/m2
06:05 6.7 °C 2.2 °C 1014.1 hPa NNW 29.0 km/h 49.9 km/h 73 % 0.0 mm 0 W/m2
06:10 6.6 °C 2.1 °C 1014.1 hPa WNW 11.3 km/h 41.8 km/h 73 % 0.0 mm 0 W/m2
06:15 6.4 °C 2.1 °C 1013.8 hPa NW 11.3 km/h 35.4 km/h 74 % 0.0 mm 0 W/m2
06:20 6.3 °C 2.0 °C 1013.8 hPa NW 9.7 km/h 32.2 km/h 74 % 0.0 mm 0 W/m2
06:25 6.3 °C 2.2 °C 1013.8 hPa NW 12.9 km/h 25.7 km/h 75 % 0.0 mm 0 W/m2
06:30 6.2 °C 2.3 °C 1013.8 hPa NW 17.7 km/h 27.4 km/h 76 % 0.0 mm 0 W/m2
06:35 6.2 °C 2.2 °C 1013.8 hPa NW 12.9 km/h 27.4 km/h 76 % 0.0 mm 0 W/m2
06:40 6.1 °C 2.2 °C 1013.8 hPa North 17.7 km/h 24.1 km/h 76 % 0.0 mm 0 W/m2
06:45 6.1 °C 2.1 °C 1014.1 hPa NW 9.7 km/h 29.0 km/h 76 % 0.0 mm 0 W/m2
06:50 6.1 °C 2.2 °C 1014.4 hPa NW 20.9 km/h 35.4 km/h 76 % 0.0 mm 0 W/m2
06:55 6.2 °C 2.3 °C 1014.4 hPa NW 16.1 km/h 35.4 km/h 76 % 0.0 mm 0 W/m2
07:00 6.3 °C 2.4 °C 1014.4 hPa WNW 11.3 km/h 35.4 km/h 76 % 0.0 mm 0 W/m2
07:05 6.4 °C 2.5 °C 1014.4 hPa WNW 9.7 km/h 35.4 km/h 76 % 0.0 mm 0 W/m2
07:10 6.4 °C 2.3 °C 1014.4 hPa NW 9.7 km/h 33.8 km/h 75 % 0.0 mm 0 W/m2
07:15 6.3 °C 2.2 °C 1014.4 hPa NNW 8.0 km/h 33.8 km/h 75 % 0.0 mm 0 W/m2
07:20 6.3 °C 2.2 °C 1014.8 hPa WNW 16.1 km/h 32.2 km/h 75 % 0.0 mm 0 W/m2
07:25 6.2 °C 2.1 °C 1014.8 hPa North 16.1 km/h 32.2 km/h 75 % 0.0 mm 0 W/m2
07:30 6.2 °C 2.2 °C 1014.8 hPa NNW 22.5 km/h 32.2 km/h 76 % 0.0 mm 0 W/m2
07:35 6.1 °C 2.1 °C 1015.1 hPa WNW 19.3 km/h 32.2 km/h 76 % 0.0 mm 0 W/m2
07:40 6.0 °C 2.3 °C 1014.8 hPa NW 16.1 km/h 25.7 km/h 77 % 0.0 mm 0 W/m2
07:45 5.9 °C 2.4 °C 1015.1 hPa North 17.7 km/h 29.0 km/h 78 % 0.0 mm 0 W/m2
07:50 5.8 °C 2.3 °C 1015.1 hPa WNW 9.7 km/h 29.0 km/h 78 % 0.0 mm 0 W/m2
07:55 5.8 °C 2.2 °C 1015.5 hPa NNW 14.5 km/h 32.2 km/h 78 % 0.0 mm 0 W/m2
08:00 5.7 °C 2.4 °C 1015.5 hPa WNW 22.5 km/h 37.0 km/h 79 % 0.0 mm 0 W/m2
08:05 5.7 °C 2.3 °C 1015.5 hPa NNW 4.8 km/h 37.0 km/h 79 % 0.0 mm 0 W/m2
08:10 5.6 °C 2.3 °C 1015.5 hPa NW 8.0 km/h 27.4 km/h 79 % 0.0 mm 0 W/m2
08:15 5.6 °C 2.2 °C 1015.5 hPa NNW 9.7 km/h 20.9 km/h 79 % 0.0 mm 0 W/m2
08:20 5.5 °C 2.1 °C 1015.5 hPa NNW 11.3 km/h 27.4 km/h 79 % 0.0 mm 0 W/m2
08:25 5.4 °C 2.3 °C 1015.5 hPa NW 9.7 km/h 27.4 km/h 80 % 0.0 mm 0 W/m2
08:30 5.4 °C 2.2 °C 1015.8 hPa NW 14.5 km/h 30.6 km/h 80 % 0.0 mm 0 W/m2
08:35 5.4 °C 2.2 °C 1015.8 hPa WNW 8.0 km/h 32.2 km/h 80 % 0.0 mm 0 W/m2
08:40 5.4 °C 2.3 °C 1015.8 hPa NNW 16.1 km/h 32.2 km/h 80 % 0.0 mm 0 W/m2
08:45 5.4 °C 2.3 °C 1015.8 hPa North 11.3 km/h 27.4 km/h 80 % 0.0 mm 0 W/m2
08:50 5.4 °C 2.2 °C 1016.1 hPa NW 17.7 km/h 30.6 km/h 80 % 0.0 mm 0 W/m2
08:55 5.3 °C 2.2 °C 1016.1 hPa NNW 9.7 km/h 30.6 km/h 80 % 0.0 mm 0 W/m2
09:00 5.3 °C 2.1 °C 1016.1 hPa NNW 22.5 km/h 27.4 km/h 80 % 0.0 mm 5 W/m2
09:05 5.2 °C 1.8 °C 1016.1 hPa North 9.7 km/h 27.4 km/h 79 % 0.0 mm 7 W/m2
09:10 5.1 °C 1.8 °C 1016.1 hPa NNW 8.0 km/h 32.2 km/h 79 % 0.0 mm 11 W/m2
09:15 5.0 °C 1.7 °C 1016.5 hPa NNW 12.9 km/h 32.2 km/h 79 % 0.0 mm 14 W/m2
09:20 5.0 °C 1.8 °C 1016.5 hPa NW 9.7 km/h 27.4 km/h 80 % 0.0 mm 18 W/m2
09:25 4.9 °C 1.8 °C 1016.5 hPa WNW 6.4 km/h 24.1 km/h 80 % 0.0 mm 25 W/m2
09:30 4.9 °C 2.0 °C 1016.5 hPa WNW 16.1 km/h 25.7 km/h 81 % 0.0 mm 23 W/m2
09:35 4.9 °C 2.0 °C 1016.8 hPa NNW 16.1 km/h 25.7 km/h 81 % 0.0 mm 23 W/m2
09:40 5.0 °C 2.0 °C 1016.8 hPa NW 16.1 km/h 33.8 km/h 81 % 0.0 mm 23 W/m2
09:45 5.0 °C 2.0 °C 1017.2 hPa NW 12.9 km/h 33.8 km/h 81 % 0.0 mm 25 W/m2
09:50 5.1 °C 2.2 °C 1017.2 hPa NW 22.5 km/h 29.0 km/h 82 % 0.0 mm 26 W/m2
09:55 5.1 °C 2.2 °C 1017.2 hPa NNW 8.0 km/h 29.0 km/h 82 % 0.0 mm 26 W/m2
10:00 5.1 °C 2.2 °C 1017.2 hPa NW 9.7 km/h 27.4 km/h 82 % 0.0 mm 28 W/m2
10:05 5.1 °C 2.3 °C 1017.5 hPa NW 4.8 km/h 27.4 km/h 82 % 0.0 mm 30 W/m2
10:10 5.2 °C 2.3 °C 1017.5 hPa WNW 11.3 km/h 27.4 km/h 82 % 0.0 mm 32 W/m2
10:15 5.2 °C 2.3 °C 1017.5 hPa North 11.3 km/h 25.7 km/h 82 % 0.0 mm 33 W/m2
10:20 5.2 °C 2.4 °C 1017.5 hPa North 9.7 km/h 25.7 km/h 82 % 0.0 mm 33 W/m2
10:25 5.3 °C 2.5 °C 1017.8 hPa NNW 4.8 km/h 24.1 km/h 82 % 0.0 mm 35 W/m2
10:30 5.3 °C 2.3 °C 1017.8 hPa NW 11.3 km/h 24.1 km/h 81 % 0.0 mm 151 W/m2
10:35 5.7 °C 2.7 °C 1017.8 hPa NW 14.5 km/h 29.0 km/h 81 % 0.0 mm 158 W/m2
10:40 6.1 °C 2.7 °C 1017.8 hPa NNW 6.4 km/h 29.0 km/h 79 % 0.0 mm 171 W/m2
10:45 6.2 °C 2.7 °C 1018.2 hPa North 9.7 km/h 22.5 km/h 78 % 0.0 mm 183 W/m2
10:50 6.4 °C 2.7 °C 1018.2 hPa NW 11.3 km/h 22.5 km/h 77 % 0.0 mm 193 W/m2
10:55 6.7 °C 2.6 °C 1018.5 hPa NNW 9.7 km/h 27.4 km/h 75 % 0.0 mm 204 W/m2
11:00 6.8 °C 2.5 °C 1018.5 hPa NNW 11.3 km/h 27.4 km/h 74 % 0.0 mm 211 W/m2
11:05 6.9 °C 2.9 °C 1018.5 hPa NNW 9.7 km/h 24.1 km/h 76 % 0.0 mm 223 W/m2
11:10 6.9 °C 2.8 °C 1018.5 hPa NW 11.3 km/h 25.7 km/h 75 % 0.0 mm 236 W/m2
11:15 7.1 °C 2.9 °C 1018.5 hPa WNW 14.5 km/h 25.7 km/h 75 % 0.0 mm 241 W/m2
11:20 7.2 °C 2.8 °C 1018.8 hPa NNW 11.3 km/h 27.4 km/h 74 % 0.0 mm 248 W/m2
11:25 7.3 °C 3.0 °C 1018.8 hPa NNW 17.7 km/h 27.4 km/h 74 % 0.0 mm 257 W/m2
11:30 7.4 °C 2.9 °C 1018.8 hPa North 9.7 km/h 24.1 km/h 73 % 0.0 mm 267 W/m2
11:35 7.6 °C 3.1 °C 1018.8 hPa NW 14.5 km/h 22.5 km/h 73 % 0.0 mm 271 W/m2
11:40 7.8 °C 3.2 °C 1018.8 hPa NNW 6.4 km/h 22.5 km/h 73 % 0.0 mm 276 W/m2
11:45 7.9 °C 3.3 °C 1019.2 hPa NW 6.4 km/h 22.5 km/h 73 % 0.0 mm 287 W/m2
11:50 8.0 °C 3.1 °C 1019.2 hPa NW 8.0 km/h 24.1 km/h 71 % 0.0 mm 290 W/m2
11:55 8.2 °C 3.2 °C 1019.2 hPa NW 4.8 km/h 30.6 km/h 71 % 0.0 mm 299 W/m2
12:00 8.2 °C 3.1 °C 1019.2 hPa NNW 6.4 km/h 30.6 km/h 70 % 0.0 mm 304 W/m2
12:05 8.3 °C 3.0 °C 1019.2 hPa NW 8.0 km/h 25.7 km/h 69 % 0.0 mm 308 W/m2
12:10 8.3 °C 2.9 °C 1019.2 hPa NW 12.9 km/h 27.4 km/h 69 % 0.0 mm 309 W/m2
12:15 8.3 °C 3.1 °C 1019.2 hPa NNW 16.1 km/h 27.4 km/h 70 % 0.0 mm 311 W/m2
12:20 8.3 °C 3.0 °C 1019.2 hPa NW 9.7 km/h 25.7 km/h 69 % 0.0 mm 311 W/m2
12:25 8.3 °C 2.8 °C 1019.5 hPa North 1.6 km/h 25.7 km/h 68 % 0.0 mm 318 W/m2
12:30 8.6 °C 3.0 °C 1019.5 hPa NW 16.1 km/h 25.7 km/h 68 % 0.0 mm 322 W/m2
12:35 8.6 °C 3.0 °C 1019.5 hPa NW 17.7 km/h 25.7 km/h 68 % 0.0 mm 327 W/m2
12:40 8.6 °C 3.4 °C 1019.5 hPa WNW 19.3 km/h 22.5 km/h 70 % 0.0 mm 332 W/m2
12:45 8.7 °C 3.1 °C 1019.5 hPa WNW 11.3 km/h 24.1 km/h 68 % 0.0 mm 334 W/m2
12:50 8.9 °C 3.1 °C 1019.5 hPa NNW 4.8 km/h 24.1 km/h 67 % 0.0 mm 338 W/m2
12:55 8.9 °C 3.1 °C 1019.5 hPa North 6.4 km/h 22.5 km/h 67 % 0.0 mm 334 W/m2
13:00 8.9 °C 2.9 °C 1019.5 hPa NNW 9.7 km/h 22.5 km/h 66 % 0.0 mm 336 W/m2
13:05 8.9 °C 2.9 °C 1019.5 hPa NW 14.5 km/h 19.3 km/h 66 % 0.0 mm 339 W/m2
13:10 9.2 °C 3.1 °C 1019.5 hPa WNW 9.7 km/h 24.1 km/h 66 % 0.0 mm 338 W/m2
13:15 9.2 °C 2.9 °C 1019.5 hPa WNW 9.7 km/h 25.7 km/h 65 % 0.0 mm 338 W/m2
13:20 9.1 °C 2.9 °C 1019.5 hPa WNW 9.7 km/h 29.0 km/h 65 % 0.0 mm 346 W/m2
13:25 8.9 °C 2.7 °C 1019.5 hPa NW 17.7 km/h 29.0 km/h 65 % 0.0 mm 339 W/m2
13:30 9.1 °C 3.1 °C 1019.5 hPa NW 11.3 km/h 29.0 km/h 66 % 0.0 mm 332 W/m2
13:35 9.3 °C 3.5 °C 1019.5 hPa West 12.9 km/h 27.4 km/h 67 % 0.0 mm 330 W/m2
13:40 9.3 °C 3.3 °C 1019.5 hPa North 11.3 km/h 24.1 km/h 66 % 0.0 mm 330 W/m2
13:45 9.5 °C 3.5 °C 1019.5 hPa NNW 12.9 km/h 24.1 km/h 66 % 0.0 mm 329 W/m2
13:50 9.5 °C 2.6 °C 1019.5 hPa NNW 27.4 km/h 27.4 km/h 62 % 0.0 mm 325 W/m2
13:55 9.3 °C 2.4 °C 1019.5 hPa NNW 16.1 km/h 29.0 km/h 62 % 0.0 mm 330 W/m2
14:00 9.6 °C 2.9 °C 1019.5 hPa North 9.7 km/h 29.0 km/h 63 % 0.0 mm 323 W/m2
14:05 9.7 °C 3.0 °C 1019.5 hPa NW 6.4 km/h 27.4 km/h 63 % 0.0 mm 332 W/m2
14:10 9.8 °C 2.7 °C 1019.5 hPa NNW 9.7 km/h 27.4 km/h 61 % 0.0 mm 322 W/m2
14:15 9.9 °C 3.0 °C 1019.5 hPa NNW 19.3 km/h 27.4 km/h 62 % 0.0 mm 313 W/m2
14:20 9.8 °C 2.4 °C 1019.5 hPa North 19.3 km/h 27.4 km/h 60 % 0.0 mm 325 W/m2
14:25 9.9 °C 2.2 °C 1019.5 hPa NNW 9.7 km/h 32.2 km/h 59 % 0.0 mm 311 W/m2
14:30 9.7 °C 1.8 °C 1019.5 hPa NNW 17.7 km/h 32.2 km/h 58 % 0.0 mm 227 W/m2
14:35 9.1 °C 1.5 °C 1019.5 hPa NW 20.9 km/h 30.6 km/h 59 % 0.0 mm 207 W/m2
14:40 8.9 °C 2.3 °C 1019.5 hPa NW 14.5 km/h 43.4 km/h 63 % 0.0 mm 278 W/m2
14:50 8.1 °C 2.7 °C 1020.2 hPa NNW 22.5 km/h 46.7 km/h 69 % 0.0 mm 279 W/m2
14:55 7.2 °C 2.1 °C 1020.2 hPa NNW 17.7 km/h 46.7 km/h 70 % 0.0 mm 125 W/m2
15:00 6.8 °C 2.1 °C 1020.2 hPa North 17.7 km/h 43.4 km/h 72 % 0.0 mm 185 W/m2
15:05 6.7 °C 2.0 °C 1020.2 hPa NW 4.8 km/h 25.7 km/h 72 % 0.0 mm 188 W/m2
15:10 7.1 °C 2.5 °C 1020.2 hPa NNW 8.0 km/h 24.1 km/h 73 % 0.0 mm 197 W/m2
15:15 7.4 °C 2.3 °C 1020.2 hPa WNW 8.0 km/h 20.9 km/h 70 % 0.0 mm 308 W/m2
15:20 7.9 °C 2.4 °C 1020.2 hPa NW 16.1 km/h 22.5 km/h 68 % 0.0 mm 294 W/m2
15:25 8.1 °C 1.9 °C 1020.2 hPa NNW 17.7 km/h 24.1 km/h 65 % 0.0 mm 272 W/m2
15:30 8.0 °C 1.6 °C 1020.2 hPa NW 11.3 km/h 27.4 km/h 64 % 0.0 mm 244 W/m2
15:35 7.9 °C 1.7 °C 1020.5 hPa North 9.7 km/h 27.4 km/h 65 % 0.0 mm 216 W/m2
15:40 7.7 °C 1.3 °C 1020.2 hPa NNW 9.7 km/h 25.7 km/h 64 % 0.0 mm 200 W/m2
15:45 7.6 °C 1.7 °C 1020.2 hPa NW 6.4 km/h 29.0 km/h 66 % 0.0 mm 186 W/m2
15:50 7.5 °C 1.8 °C 1020.2 hPa WNW 6.4 km/h 29.0 km/h 67 % 0.0 mm 176 W/m2
15:55 7.4 °C 1.7 °C 1020.5 hPa WNW 12.9 km/h 24.1 km/h 67 % 0.0 mm 105 W/m2
16:00 7.3 °C 2.0 °C 1020.5 hPa NW 11.3 km/h 22.5 km/h 69 % 0.0 mm 142 W/m2
16:05 7.3 °C 1.8 °C 1020.5 hPa NNW 17.7 km/h 22.5 km/h 68 % 0.0 mm 144 W/m2
16:10 7.2 °C 2.1 °C 1020.5 hPa NW 6.4 km/h 27.4 km/h 70 % 0.0 mm 128 W/m2
16:15 7.1 °C 1.7 °C 1020.5 hPa NNW 8.0 km/h 27.4 km/h 69 % 0.0 mm 118 W/m2
16:20 7.1 °C 1.8 °C 1020.5 hPa West 14.5 km/h 24.1 km/h 69 % 0.0 mm 105 W/m2
16:25 7.1 °C 2.0 °C 1020.5 hPa NW 4.8 km/h 25.7 km/h 70 % 0.0 mm 97 W/m2
16:30 7.0 °C 2.1 °C 1020.5 hPa WNW 9.7 km/h 25.7 km/h 71 % 0.0 mm 84 W/m2
16:35 6.9 °C 1.8 °C 1020.5 hPa NW 8.0 km/h 24.1 km/h 70 % 0.0 mm 58 W/m2
16:40 6.8 °C 1.7 °C 1020.9 hPa NW 9.7 km/h 25.7 km/h 70 % 0.0 mm 32 W/m2
16:45 6.7 °C 1.8 °C 1020.5 hPa WNW 20.9 km/h 25.7 km/h 71 % 0.0 mm 28 W/m2
16:50 6.8 °C 1.9 °C 1020.5 hPa WNW 16.1 km/h 22.5 km/h 71 % 0.0 mm 26 W/m2
16:55 6.6 °C 1.9 °C 1020.5 hPa NNW 11.3 km/h 19.3 km/h 72 % 0.0 mm 25 W/m2
17:00 6.4 °C 1.8 °C 1020.5 hPa NW 8.0 km/h 19.3 km/h 72 % 0.0 mm 23 W/m2
17:05 6.4 °C 1.7 °C 1020.5 hPa NW 11.3 km/h 19.3 km/h 72 % 0.0 mm 21 W/m2
17:10 6.3 °C 2.0 °C 1020.9 hPa NW 8.0 km/h 16.1 km/h 74 % 0.0 mm 19 W/m2
17:15 6.1 °C 1.6 °C 1020.5 hPa NNW 9.7 km/h 17.7 km/h 73 % 0.0 mm 16 W/m2
17:20 6.1 °C 1.6 °C 1020.5 hPa NW 9.7 km/h 17.7 km/h 73 % 0.0 mm 12 W/m2
17:25 5.8 °C 1.5 °C 1020.5 hPa WNW 12.9 km/h 22.5 km/h 74 % 0.0 mm 9 W/m2
17:30 5.7 °C 1.3 °C 1020.5 hPa WNW 12.9 km/h 22.5 km/h 73 % 0.0 mm 7 W/m2
17:35 5.8 °C 1.2 °C 1020.5 hPa NW 14.5 km/h 24.1 km/h 72 % 0.0 mm 7 W/m2
17:40 5.9 °C 1.0 °C 1020.5 hPa NW 3.2 km/h 24.1 km/h 71 % 0.0 mm 5 W/m2
17:45 5.9 °C 0.8 °C 1020.5 hPa NNW 9.7 km/h 22.5 km/h 70 % 0.0 mm 0 W/m2
17:50 5.8 °C 0.7 °C 1020.5 hPa NW 8.0 km/h 22.5 km/h 70 % 0.0 mm 0 W/m2
17:55 5.7 °C 0.9 °C 1020.9 hPa WNW 9.7 km/h 20.9 km/h 71 % 0.0 mm 0 W/m2
18:00 5.8 °C 0.9 °C 1020.9 hPa North 8.0 km/h 25.7 km/h 71 % 0.0 mm 0 W/m2
18:05 5.8 °C 1.1 °C 1021.2 hPa NW 11.3 km/h 25.7 km/h 72 % 0.0 mm 0 W/m2
18:10 5.7 °C 1.2 °C 1021.2 hPa NNW 4.8 km/h 24.1 km/h 73 % 0.0 mm 0 W/m2
18:15 5.2 °C 1.0 °C 1021.2 hPa NNW 3.2 km/h 19.3 km/h 74 % 0.0 mm 0 W/m2
18:20 4.8 °C 0.9 °C 1021.2 hPa NNW 4.8 km/h 14.5 km/h 76 % 0.0 mm 0 W/m2
18:25 4.7 °C 1.0 °C 1021.2 hPa NW 4.8 km/h 14.5 km/h 77 % 0.0 mm 0 W/m2
18:30 4.3 °C 0.8 °C 1021.2 hPa NW 4.8 km/h 12.9 km/h 78 % 0.0 mm 0 W/m2
18:35 4.3 °C 0.8 °C 1021.2 hPa NNW 3.2 km/h 12.9 km/h 78 % 0.0 mm 0 W/m2
18:40 4.2 °C 0.7 °C 1021.2 hPa NW 1.6 km/h 14.5 km/h 78 % 0.0 mm 0 W/m2
18:45 4.2 °C 0.7 °C 1021.2 hPa NNW 1.6 km/h 14.5 km/h 78 % 0.0 mm 0 W/m2
18:50 4.0 °C 0.7 °C 1021.2 hPa NNW 6.4 km/h 12.9 km/h 79 % 0.0 mm 0 W/m2
18:55 3.9 °C 0.6 °C 1021.2 hPa NW 8.0 km/h 16.1 km/h 79 % 0.0 mm 0 W/m2
19:00 3.7 °C 0.5 °C 1021.2 hPa NNW 9.7 km/h 16.1 km/h 80 % 0.0 mm 0 W/m2
19:05 3.6 °C 0.7 °C 1021.2 hPa NNW 6.4 km/h 12.9 km/h 81 % 0.0 mm 0 W/m2
19:10 3.6 °C 0.6 °C 1021.2 hPa NNW 6.4 km/h 12.9 km/h 81 % 0.0 mm 0 W/m2
19:15 3.6 °C 0.6 °C 1021.2 hPa NW 3.2 km/h 12.9 km/h 81 % 0.0 mm 0 W/m2
19:20 3.4 °C 0.5 °C 1021.2 hPa NW 1.6 km/h 9.7 km/h 81 % 0.0 mm 0 W/m2
19:25 3.2 °C 0.4 °C 1021.6 hPa NW 3.2 km/h 16.1 km/h 82 % 0.0 mm 0 W/m2
19:30 3.1 °C 0.4 °C 1021.6 hPa NNW 1.6 km/h 16.1 km/h 83 % 0.0 mm 0 W/m2
19:35 3.1 °C 0.4 °C 1021.6 hPa NW 3.2 km/h 9.7 km/h 83 % 0.0 mm 0 W/m2
19:40 3.0 °C 0.4 °C 1021.6 hPa NNW 3.2 km/h 12.9 km/h 83 % 0.0 mm 0 W/m2
19:45 3.2 °C 0.6 °C 1021.6 hPa NNW 1.6 km/h 16.1 km/h 83 % 0.0 mm 0 W/m2
19:50 3.4 °C 0.6 °C 1021.6 hPa NW 1.6 km/h 16.1 km/h 82 % 0.0 mm 0 W/m2
19:55 3.3 °C 0.5 °C 1021.6 hPa NW 1.6 km/h 14.5 km/h 82 % 0.0 mm 0 W/m2
20:00 3.3 °C 0.7 °C 1021.6 hPa NW 3.2 km/h 8.0 km/h 83 % 0.0 mm 0 W/m2
20:05 3.3 °C 0.7 °C 1021.6 hPa Calm   16.1 km/h 83 % 0.0 mm 0 W/m2
20:10 3.2 °C 0.6 °C 1021.6 hPa NNW 4.8 km/h 16.1 km/h 83 % 0.0 mm 0 W/m2
20:15 3.2 °C 0.4 °C 1021.6 hPa NNW 3.2 km/h 11.3 km/h 82 % 0.0 mm 0 W/m2
20:20 3.3 °C 0.5 °C 1021.9 hPa WNW 1.6 km/h 11.3 km/h 82 % 0.0 mm 0 W/m2
20:25 3.4 °C 0.6 °C 1021.9 hPa WNW 8.0 km/h 17.7 km/h 82 % 0.0 mm 0 W/m2
20:30 3.6 °C 0.7 °C 1021.9 hPa NNW 9.7 km/h 17.7 km/h 81 % 0.0 mm 0 W/m2
20:35 3.7 °C 0.8 °C 1021.9 hPa NW 16.1 km/h 17.7 km/h 81 % 0.0 mm 0 W/m2
20:40 3.7 °C 0.6 °C 1022.2 hPa WNW 9.7 km/h 22.5 km/h 80 % 0.0 mm 0 W/m2
20:45 3.8 °C 0.7 °C 1021.9 hPa NW 6.4 km/h 22.5 km/h 80 % 0.0 mm 0 W/m2
20:50 3.9 °C 0.6 °C 1022.2 hPa NW 6.4 km/h 19.3 km/h 79 % 0.0 mm 0 W/m2
20:55 4.1 °C 0.6 °C 1022.2 hPa NNW 11.3 km/h 24.1 km/h 78 % 0.0 mm 0 W/m2
21:00 4.0 °C 0.5 °C 1022.2 hPa NW 9.7 km/h 24.1 km/h 78 % 0.0 mm 0 W/m2
21:05 3.8 °C 0.5 °C 1022.2 hPa NNW 9.7 km/h 17.7 km/h 79 % 0.0 mm 0 W/m2
21:10 3.8 °C 0.5 °C 1022.2 hPa NW 11.3 km/h 17.7 km/h 79 % 0.0 mm 0 W/m2
21:15 3.8 °C 0.5 °C 1022.2 hPa NW 8.0 km/h 16.1 km/h 79 % 0.0 mm 0 W/m2
21:20 3.9 °C 0.6 °C 1022.2 hPa NNW 4.8 km/h 16.1 km/h 79 % 0.0 mm 0 W/m2
21:25 3.9 °C 0.6 °C 1022.2 hPa WNW 12.9 km/h 14.5 km/h 79 % 0.0 mm 0 W/m2
21:30 3.9 °C 0.6 °C 1022.2 hPa NNW 4.8 km/h 16.1 km/h 79 % 0.0 mm 0 W/m2
21:35 3.8 °C 0.5 °C 1022.2 hPa West 9.7 km/h 19.3 km/h 79 % 0.0 mm 0 W/m2
21:40 3.9 °C 0.8 °C 1022.2 hPa WNW 9.7 km/h 27.4 km/h 80 % 0.0 mm 0 W/m2
21:50 4.0 °C 0.7 °C 1022.2 hPa NW 11.3 km/h 22.5 km/h 79 % 0.0 mm 0 W/m2
21:55 4.1 °C 0.7 °C 1022.2 hPa West 17.7 km/h 32.2 km/h 79 % 0.0 mm 0 W/m2
22:00 4.1 °C 0.6 °C 1022.2 hPa NW 6.4 km/h 32.2 km/h 78 % 0.0 mm 0 W/m2
22:05 3.9 °C 0.5 °C 1022.2 hPa NNW 6.4 km/h 25.7 km/h 78 % 0.0 mm 0 W/m2
22:10 3.8 °C 0.5 °C 1022.2 hPa NNW 11.3 km/h 24.1 km/h 79 % 0.0 mm 0 W/m2
22:15 4.1 °C 0.7 °C 1022.2 hPa North 9.7 km/h 24.1 km/h 79 % 0.0 mm 0 W/m2
22:20 4.0 °C 0.9 °C 1022.2 hPa WNW 9.7 km/h 20.9 km/h 80 % 0.0 mm 0 W/m2
22:25 3.9 °C 0.8 °C 1022.2 hPa NW 17.7 km/h 19.3 km/h 80 % 0.0 mm 0 W/m2
22:30 3.9 °C 1.0 °C 1022.2 hPa WNW 19.3 km/h 24.1 km/h 81 % 0.0 mm 0 W/m2
22:35 4.0 °C 1.0 °C 1022.2 hPa NW 14.5 km/h 24.1 km/h 81 % 0.0 mm 0 W/m2
22:40 3.9 °C 1.0 °C 1022.2 hPa WNW 16.1 km/h 19.3 km/h 81 % 0.0 mm 0 W/m2
22:45 4.0 °C 1.0 °C 1022.6 hPa NW 6.4 km/h 19.3 km/h 81 % 0.0 mm 0 W/m2
22:50 3.9 °C 1.0 °C 1022.6 hPa NW 4.8 km/h 19.3 km/h 81 % 0.0 mm 0 W/m2
22:55 3.8 °C 0.8 °C 1022.6 hPa NW 4.8 km/h 17.7 km/h 81 % 0.0 mm 0 W/m2
23:00 3.8 °C 0.8 °C 1022.6 hPa NW 9.7 km/h 17.7 km/h 81 % 0.0 mm 0 W/m2
23:05 3.7 °C 0.7 °C 1022.6 hPa WNW 9.7 km/h 20.9 km/h 81 % 0.0 mm 0 W/m2
23:10 3.5 °C 0.7 °C 1022.9 hPa NNW 8.0 km/h 20.9 km/h 82 % 0.0 mm 0 W/m2
23:15 3.4 °C 0.7 °C 1022.9 hPa NW 8.0 km/h 20.9 km/h 82 % 0.0 mm 0 W/m2
23:20 3.6 °C 0.8 °C 1022.9 hPa NNE 6.4 km/h 27.4 km/h 82 % 0.0 mm 0 W/m2
23:25 3.7 °C 0.7 °C 1022.9 hPa NW 6.4 km/h 27.4 km/h 81 % 0.0 mm 0 W/m2
23:30 3.4 °C 0.5 °C 1022.9 hPa NW 14.5 km/h 24.1 km/h 81 % 0.0 mm 0 W/m2
23:35 3.3 °C 0.3 °C 1022.9 hPa NW 4.8 km/h 20.9 km/h 81 % 0.0 mm 0 W/m2
23:40 3.2 °C 0.4 °C 1023.2 hPa NNW 8.0 km/h 25.7 km/h 82 % 0.0 mm 0 W/m2
23:45 3.3 °C 0.5 °C 1023.2 hPa NNW 16.1 km/h 25.7 km/h 82 % 0.0 mm 0 W/m2
23:50 3.3 °C 0.6 °C 1023.2 hPa NNW 8.0 km/h 25.7 km/h 82 % 0.0 mm 0 W/m2
23:55 3.2 °C 0.6 °C 1023.2 hPa NW 6.4 km/h 20.9 km/h 83 % 0.0 mm 0 W/m2
Avec l'autorisation de Weather Underground - 1.75 mb